Zurück zum Katalog

CZ-6A DEB

AktivSSO
NORAD 56613·DEBRIS·🇨🇳 China

Gestartet Nov 11, 2022 von Taiyuan Satellite Launch Center

Loading…

Nächste Überflüge (nächste 24 Stunden)

TLE

AktuellSource: Space-Track

Epoche: Sep 14, 2026, 06:50 UTC

1 56613U 22151AEM 26257.28509875  .00000698  00000-0  33150-3 0  9996
2 56613  98.7996 282.3119 0003592  50.0619 310.0874 14.22706467180895

Verfolge CZ-6A DEB in Echtzeit mit AllMySat

Download on the App Store